Location: Cuguron
(43.0994°N, 0.5363°E)
Time: 15:21:06
(UTC+00:00)

Cosmos 2322 - Pass Details

Date: 15 May 2026
Orbit: 840 x 853 km, 71.0° (Epoch: 10 June)

Event Time Altitude Azimuth Distance (km) Brightness Sun altitude
Rises 23:34:41 0° 330° (NNW) 3,421 7.9 -27.7°
Reaches altitude 10° 23:37:12 10° 325° (NW) 2,480 6.9 -27.7°
Enters shadow 23:42:17 49° 265° (W) 1,087 4.1 -27.8°
